Terminal Aerodrome Forecast
Issued by NWS

Home | Current Version | Previous Version | Text Only | Print | Product List | Glossary On
Versions: 1 2 3 4 5 6 7 8 9 10 11 12 13 14 15 16 17 18 19 20
000
FTUS43 KLSX 152000 AAA
TAFUIN
TAF AMD
KUIN 152054Z 1521/1618 33008KT P6SM OVC008
     FM152200 34008KT P6SM BKN015
     FM160200 36006KT P6SM SKC
     FM160700 VRB03KT 3SM BR SKC
     FM161400 36004KT P6SM SKC=

USA.gov is the U.S. government's official web portal to all federal, state and local government web resources and services.